Theta_e
290 287 284 285 288 289 288 287 285 288 290 289 289 287 290 290 289 291 291 291 292 294 300 300 312 318 320 322 324 324 324 324 326 324 327 328 328 328 327 327 327 327 325 322
287 284 289 291 289 287 286 284 283 287 290 289 286 288 290 289 291 291 292 291 292 292 294 294 297 308 316 321 324 324 325 325 326 327 326 326 328 328 329 328 327 327 326 323
285 289 291 290 287 286 283 283 283 286 287 287 285 285 286 290 290 292 292 294 294 294 295 294 294 298 309 317 321 323 325 325 326 326 323 320 323 325 325 325 326 326 326 324
287 291 290 287 286 287 283 287 286 286 284 280 282 278 282 285 288 289 293 292 295 293 293 294 294 295 299 306 308 315 320 323 325 324 323 323 323 321 322 322 324 327 326 325
285 286 286 286 286 288 286 288 287 285 282 279 279 278 281 282 285 288 292 292 293 292 292 294 296 298 301 304 304 304 303 308 321 323 324 323 321 321 319 323 324 325 325 325
287 289 289 289 289 289 288 286 285 282 280 277 280 280 280 283 287 286 288 289 290 291 294 295 300 303 303 304 305 305 304 303 302 319 323 322 321 320 319 322 322 322 323 323
284 285 287 289 287 287 285 282 276 276 275 276 278 277 284 286 286 287 289 289 288 290 293 296 298 299 300 302 303 304 302 299 299 300 322 323 321 320 320 320 322 320 319 319
281 279 286 288 288 285 283 284 277 272 273 276 279 277 283 287 288 288 287 288 289 291 293 295 296 297 298 301 301 302 304 304 305 303 314 322 322 321 319 321 320 318 317 315
281 280 286 288 289 290 285 282 284 278 268 274 277 280 286 286 287 287 288 289 290 292 293 294 295 296 297 298 300 302 303 303 304 310 311 316 315 313 314 312 311 310 309 307
286 281 286 288 289 289 287 289 282 280 270 270 276 276 281 283 286 287 289 289 290 291 292 294 294 295 296 297 298 299 300 301 301 304 307 308 309 310 309 309 307 306 305 305
287 285 283 286 285 284 284 283 282 282 280 274 271 277 283 287 287 288 288 289 290 291 292 293 293 294 295 294 295 296 298 299 299 300 300 300 300 300 301 301 300 302 301 301
288 286 281 282 285 288 286 286 286 282 277 277 277 278 283 285 286 287 288 288 290 291 292 292 292 293 292 293 294 295 295 296 296 296 296 296 296 296 295 295 296 295 294 294
289 283 278 281 284 285 283 283 284 283 281 278 275 279 287 286 287 287 287 287 290 291 291 291 291 291 291 292 292 293 293 293 293 293 293 293 293 293 292 292 291 291 290 290
294 285 283 280 282 285 282 284 285 285 280 280 280 280 283 284 286 288 288 286 288 290 291 290 290 290 290 291 291 291 291 291 291 291 291 290 289 290 289 289 288 288 287 287
290 281 282 282 284 286 285 284 285 284 286 281 284 282 284 285 286 287 287 288 289 290 290 290 290 290 289 289 289 289 289 289 289 289 288 287 287 287 286 285 285 284 284 284
288 277 282 281 283 284 283 284 286 286 286 286 284 283 287 286 286 286 290 289 289 289 290 291 291 290 290 290 289 289 289 287 287 286 286 285 285 284 283 284 283 283 282 282
285 280 276 278 281 283 279 284 284 286 287 287 282 288 288 285 286 288 289 289 290 291 292 292 292 293 292 290 290 288 287 285 285 284 284 284 284 283 283 282 282 281 281 281
285 285 282 277 280 274 283 287 288 286 287 289 289 287 287 288 288 289 290 290 291 292 292 293 293 293 291 289 288 286 285 284 284 283 283 283 282 282 281 280 280 279 279 280
289 284 278 278 269 279 284 283 283 282 285 288 287 290 287 288 286 289 289 290 293 294 294 295 294 293 289 288 286 285 284 283 283 282 282 281 281 280 279 278 278 278 279 279
287 289 285 278 278 274 282 288 287 287 281 288 289 290 289 286 284 290 290 290 291 292 292 292 291 288 287 287 286 285 283 282 282 282 281 280 279 278 276 277 276 274 276 279
282 283 283 282 279 276 284 285 287 280 282 286 287 289 287 286 290 289 289 289 289 289 290 289 289 288 287 286 286 285 283 282 282 280 279 278 277 276 276 276 273 275 277 278
283 282 282 282 279 277 284 285 284 287 285 287 286 287 286 286 286 287 289 288 288 287 284 286 285 284 283 285 285 283 282 281 279 278 277 275 274 277 276 275 275 275 276 276
283 286 283 285 283 285 285 285 287 287 287 285 285 286 287 286 285 286 286 283 282 281 282 279 281 279 279 282 285 282 279 278 276 275 274 272 271 273 274 274 275 274 275 276
283 284 285 285 283 282 285 286 286 286 285 286 286 285 285 285 286 285 281 283 281 278 279 275 278 277 276 275 278 280 277 276 275 273 272 272 273 272 276 277 277 276 276 275
284 285 282 280 282 283 284 285 286 286 286 286 286 286 285 285 284 284 279 277 279 278 275 276 276 276 274 273 274 276 275 276 275 274 273 273 274 276 274 275 275 276 276 277
285 284 284 282 286 285 286 286 286 286 285 284 284 284 284 284 285 281 278 278 275 274 273 273 273 273 271 272 272 273 275 276 274 273 273 274 275 274 274 275 276 279 279 280
Wind_Speed
2 5 6 6 6 7 6 7 6 3 2 3 7 7 9 5 4 9 9 8 9 12 13 8 10 9 8 8 10 10 10 9 9 5 6 6 7 5 4 4 6 7 7 7
5 7 9 6 5 4 4 5 4 1 0 4 1 11 10 4 8 9 10 10 11 8 9 8 9 8 11 12 13 11 12 11 10 8 6 5 5 3 5 4 6 8 7 7
8 7 9 6 4 6 4 6 5 5 2 1 4 8 5 7 5 5 8 10 9 13 11 7 8 9 8 11 12 13 14 12 11 11 4 2 2 2 3 3 4 6 8 8
5 4 11 6 6 6 5 5 4 5 5 4 1 7 6 5 10 6 15 13 16 11 8 4 6 6 7 6 4 5 7 9 10 9 8 10 9 8 5 4 4 6 11 10
8 9 7 5 7 8 9 5 7 4 3 2 1 1 9 2 8 11 16 13 12 9 8 9 8 7 5 6 5 4 3 4 6 9 10 9 7 5 2 2 5 5 5 8
6 1 7 12 4 9 9 7 7 5 3 3 7 6 7 6 11 4 5 8 8 8 9 6 6 5 4 3 3 2 3 5 6 6 10 11 10 6 5 5 5 4 4 4
3 2 1 5 7 3 3 7 2 2 2 6 2 2 10 8 8 7 8 6 5 8 8 8 8 7 5 5 3 2 4 6 6 7 8 11 9 9 10 7 5 4 2 2
10 6 8 5 6 9 5 11 8 7 5 4 2 9 10 7 8 9 7 3 4 6 6 8 8 7 4 4 3 4 4 4 6 8 9 9 9 6 4 4 2 3 2 2
8 4 2 1 4 10 6 6 7 9 3 3 6 7 13 5 10 5 6 5 8 8 8 7 5 6 5 4 4 5 5 2 2 3 4 5 5 6 6 6 6 5 4 3
7 6 1 2 4 2 8 11 4 2 4 4 6 6 7 4 8 6 8 10 8 6 7 7 6 5 4 4 3 3 3 4 3 5 4 5 6 6 7 6 7 6 5 4
6 6 2 2 7 10 5 4 4 6 5 6 1 8 10 13 7 11 11 7 8 8 8 7 6 6 5 3 4 5 5 6 5 5 5 7 6 6 6 7 6 7 5 5
1 6 5 5 2 2 0 7 7 6 7 2 3 11 3 8 6 7 7 8 6 6 8 7 7 7 6 6 5 5 4 5 4 4 6 6 6 6 7 7 7 6 7 6
8 0 5 4 3 2 4 2 4 6 4 8 5 6 4 5 5 3 6 6 7 7 8 7 7 7 7 7 6 5 5 5 5 6 7 6 6 6 7 7 7 7 7 6
8 3 8 12 7 11 6 8 6 6 2 6 17 3 1 3 5 3 2 2 6 7 9 8 8 8 7 7 6 6 6 6 5 5 6 6 6 7 6 6 7 7 6 8
7 7 4 0 5 8 6 8 12 15 29 11 20 16 10 7 7 7 4 4 6 9 9 8 8 7 7 7 6 6 6 7 6 7 6 6 6 6 7 7 7 7 7 7
2 2 5 1 2 3 5 12 21 28 15 26 11 23 7 8 2 2 7 7 7 8 9 10 9 10 13 11 10 10 9 7 6 7 7 6 7 7 7 7 7 7 6 7
11 7 4 8 1 7 7 24 17 16 19 20 21 21 8 6 9 12 11 9 11 11 12 14 18 17 14 14 12 12 9 7 7 7 6 7 7 8 7 7 7 7 6 6
9 10 3 3 4 8 11 7 15 19 16 24 26 9 9 10 10 12 11 10 12 12 13 13 11 12 13 11 11 9 9 8 8 8 8 7 7 8 6 6 7 5 4 6
6 6 4 7 5 8 10 6 7 10 25 16 22 16 7 7 4 13 8 12 16 14 13 13 13 12 12 15 12 12 11 10 9 10 10 8 8 8 7 7 7 4 7 6
4 10 7 3 6 14 3 10 10 7 24 11 17 19 18 8 10 13 11 7 10 11 7 8 9 7 13 14 15 15 13 13 13 12 10 8 8 8 7 7 6 2 4 7
5 3 13 7 7 12 8 5 7 15 8 5 5 11 8 10 10 3 1 3 3 5 7 6 10 13 14 14 16 17 16 17 13 10 10 9 7 8 7 7 3 5 7 7
12 11 8 5 8 18 6 4 12 8 1 1 2 3 6 7 1 3 6 5 7 6 1 6 7 7 7 12 15 15 15 10 12 12 10 8 7 6 6 8 6 6 9 9
8 9 10 13 9 2 3 4 4 2 2 2 1 2 4 3 1 3 4 3 2 1 3 1 7 8 6 9 11 13 10 13 12 11 9 7 6 6 6 8 8 6 5 6
2 2 4 5 1 1 2 2 1 3 2 3 2 2 2 2 4 4 3 1 0 2 2 2 6 5 5 3 5 7 13 13 15 13 11 9 9 8 7 5 5 6 6 6
3 6 6 0 3 3 3 2 2 3 4 5 5 4 3 3 4 3 2 2 2 2 2 3 3 4 4 4 6 11 12 13 12 11 10 9 7 8 7 4 4 5 2 5
3 4 5 3 3 3 3 2 2 5 3 3 3 4 3 2 5 3 3 2 1 3 2 3 4 6 5 6 7 8 10 14 15 12 9 9 8 7 7 7 6 7 8 10
Wind_Direction
145 124 186 180 177 177 173 172 196 237 187 147 219 252 261 228 213 236 231 223 236 236 245 217 222 207 198 193 193 200 190 199 188 185 194 199 210 203 197 185 184 186 186 182
74 198 210 174 133 130 150 161 193 294 274 154 238 261 251 218 232 208 215 226 227 239 251 229 215 191 196 199 200 198 205 201 200 199 199 204 184 177 200 191 191 193 191 189
161 203 141 160 165 159 171 175 186 203 126 17 354 290 247 246 236 234 230 226 229 224 228 232 210 200 195 198 198 199 200 198 202 200 154 81 72 96 153 180 197 200 192 193
172 191 157 153 192 141 202 204 145 136 120 211 108 277 269 247 252 218 239 229 227 215 214 203 179 187 200 201 173 198 186 189 196 186 192 195 205 211 209 193 204 202 200 202
211 155 139 162 185 155 221 136 142 116 108 110 250 183 266 259 269 235 233 238 230 216 196 195 198 180 172 153 163 181 184 208 193 189 198 195 197 202 191 192 195 201 206 208
181 166 152 180 133 161 148 84 50 61 94 267 213 171 266 205 218 266 239 238 234 196 190 178 132 141 143 131 132 162 193 220 220 210 203 197 198 187 186 212 201 202 205 212
105 169 159 122 95 79 116 106 30 337 290 222 21 279 243 244 246 222 244 298 231 191 160 148 160 180 176 165 161 178 199 236 225 210 205 197 195 190 198 203 209 176 210 229
163 200 163 178 170 157 174 156 153 183 213 223 86 234 244 239 253 245 257 257 161 160 165 175 184 179 170 143 133 126 143 190 209 198 200 207 193 191 186 184 173 120 120 75
147 199 68 140 142 153 189 194 153 107 21 54 219 287 297 237 268 267 237 193 195 187 182 183 167 164 154 151 164 169 162 169 138 154 143 161 150 135 134 105 94 93 88 79
194 121 56 163 128 70 183 154 124 17 135 258 275 267 237 273 242 237 236 220 196 177 177 179 169 160 164 173 160 121 128 142 111 96 97 116 107 104 104 107 103 102 93 86
135 109 187 137 209 157 147 177 72 124 151 172 267 263 220 225 208 208 229 213 192 185 188 179 178 182 179 130 137 152 146 141 123 120 116 107 109 110 103 104 104 92 90 93
133 112 142 173 280 298 23 162 156 169 209 213 167 253 225 224 253 207 237 214 200 184 183 180 179 168 162 171 175 171 145 131 139 112 94 90 95 97 99 96 93 92 88 69
177 287 92 43 332 4 200 196 145 99 82 201 161 249 344 309 290 269 227 198 191 182 179 183 176 183 182 179 170 160 162 157 127 118 124 119 109 100 95 96 92 91 99 91
98 134 167 194 202 135 182 185 188 146 179 198 242 177 337 237 266 282 265 183 193 195 193 189 188 188 186 185 176 171 160 148 141 127 117 115 113 110 105 99 95 97 95 96
129 181 174 200 173 166 174 169 176 197 222 191 254 232 204 237 234 243 220 175 184 202 200 197 192 192 190 187 182 162 159 162 157 142 131 127 119 110 106 102 103 100 96 100
174 209 123 234 106 109 182 203 202 216 213 240 256 268 175 218 195 274 238 213 224 219 212 200 197 196 199 190 183 180 177 163 144 139 138 129 118 116 115 120 121 108 105 98
151 131 102 225 72 83 300 221 214 222 218 228 231 249 200 196 207 222 234 196 214 215 208 203 207 203 196 192 178 180 167 147 145 142 141 139 137 133 135 131 118 117 126 121
147 149 105 128 108 191 249 205 214 218 226 227 248 239 187 204 216 224 217 197 214 220 214 216 207 201 190 174 169 144 144 145 146 147 150 147 143 137 133 126 125 124 123 116
159 145 102 148 200 282 267 178 154 173 249 226 241 245 222 220 258 251 205 213 221 222 222 214 199 187 165 166 158 149 153 154 155 161 162 158 149 145 147 141 142 140 125 109
97 202 173 125 186 228 10 207 159 97 267 202 219 231 227 150 232 258 215 215 225 225 217 199 168 144 158 169 160 160 165 163 175 170 164 153 153 154 148 140 136 120 116 124
134 109 191 174 228 276 226 206 136 175 253 222 217 228 161 194 225 161 271 212 222 237 230 161 164 178 181 162 163 171 168 183 167 150 143 146 148 149 144 135 122 136 122 121
164 162 192 178 213 256 159 98 168 215 224 196 180 169 195 228 291 260 276 308 323 296 270 160 154 155 146 163 169 172 180 153 142 142 143 141 137 141 136 138 136 132 131 130
201 192 178 187 209 198 186 0 9 0 199 175 76 22 332 315 18 346 316 344 335 324 129 105 135 129 142 167 181 172 156 144 138 132 133 131 120 123 140 143 142 132 131 136
260 190 157 105 354 136 158 63 12 23 44 32 37 71 86 337 318 259 265 270 319 75 122 67 114 129 150 133 131 149 146 143 142 143 147 146 145 146 151 148 152 148 152 156
193 132 143 77 122 108 37 35 14 43 40 17 3 6 9 339 302 301 301 224 195 142 91 95 119 128 137 124 124 143 147 148 144 142 147 151 154 159 146 131 152 148 141 182
195 163 175 188 125 124 156 142 95 86 81 65 42 340 8 353 328 12 307 290 175 157 139 119 123 134 161 155 147 151 159 158 148 150 159 166 161 155 153 147 132 150 170 157